<?xml version="1.0"?>
<gpx xmlns="http://www.topografix.com/GPX/1/1" xmlns:xsi="http://www.w3.org/2001/XMLSchema-instance" version="1.1" creator="GPX RubyGem 1.0.0 -- http://dougfales.github.io/gpx/" xsi:schemaLocation="http://www.topografix.com/GPX/1/1 http://www.topografix.com/GPX/1/1/gpx.xsd">
  <metadata>
    <name/>
    <time>2026-05-04T00:51:19+00:00</time>
    <bound minlat="90.0" minlon="180.0" maxlat="-90.0" maxlon="-180.0"/>
  </metadata>
  <trk>
    <name/>
    <trkseg>
      <trkpt lat="38.861883" lon="-9.40452">
        <time>1970-01-01T00:00:00+00:00</time>
        <ele>150.0</ele>
      </trkpt>
      <trkpt lat="38.862274" lon="-9.403921">
        <time>1970-01-01T00:00:00+00:00</time>
        <ele>151.0</ele>
      </trkpt>
      <trkpt lat="38.86044" lon="-9.403218">
        <time>1970-01-01T00:00:00+00:00</time>
        <ele>159.0</ele>
      </trkpt>
      <trkpt lat="38.859736" lon="-9.403167">
        <time>1970-01-01T00:00:00+00:00</time>
        <ele>163.0</ele>
      </trkpt>
      <trkpt lat="38.858519" lon="-9.402937">
        <time>1970-01-01T00:00:00+00:00</time>
        <ele>164.0</ele>
      </trkpt>
      <trkpt lat="38.858254" lon="-9.402985">
        <time>1970-01-01T00:00:00+00:00</time>
        <ele>164.0</ele>
      </trkpt>
      <trkpt lat="38.85802" lon="-9.402875">
        <time>1970-01-01T00:00:00+00:00</time>
        <ele>166.0</ele>
      </trkpt>
      <trkpt lat="38.85784" lon="-9.402832">
        <time>1970-01-01T00:00:00+00:00</time>
        <ele>166.0</ele>
      </trkpt>
      <trkpt lat="38.857143" lon="-9.401696">
        <time>1970-01-01T00:00:00+00:00</time>
        <ele>173.0</ele>
      </trkpt>
      <trkpt lat="38.856067" lon="-9.402376">
        <time>1970-01-01T00:00:00+00:00</time>
        <ele>165.0</ele>
      </trkpt>
      <trkpt lat="38.855668" lon="-9.402392">
        <time>1970-01-01T00:00:00+00:00</time>
        <ele>167.0</ele>
      </trkpt>
      <trkpt lat="38.855035" lon="-9.402405">
        <time>1970-01-01T00:00:00+00:00</time>
        <ele>171.0</ele>
      </trkpt>
      <trkpt lat="38.854042" lon="-9.402505">
        <time>1970-01-01T00:00:00+00:00</time>
        <ele>170.0</ele>
      </trkpt>
      <trkpt lat="38.854042" lon="-9.402505">
        <time>1970-01-01T00:00:00+00:00</time>
        <ele>170.0</ele>
      </trkpt>
      <trkpt lat="38.855035" lon="-9.402405">
        <time>1970-01-01T00:00:00+00:00</time>
        <ele>171.0</ele>
      </trkpt>
      <trkpt lat="38.855668" lon="-9.402392">
        <time>1970-01-01T00:00:00+00:00</time>
        <ele>167.0</ele>
      </trkpt>
      <trkpt lat="38.856067" lon="-9.402376">
        <time>1970-01-01T00:00:00+00:00</time>
        <ele>165.0</ele>
      </trkpt>
      <trkpt lat="38.857143" lon="-9.401696">
        <time>1970-01-01T00:00:00+00:00</time>
        <ele>173.0</ele>
      </trkpt>
      <trkpt lat="38.85784" lon="-9.402832">
        <time>1970-01-01T00:00:00+00:00</time>
        <ele>166.0</ele>
      </trkpt>
      <trkpt lat="38.85802" lon="-9.402875">
        <time>1970-01-01T00:00:00+00:00</time>
        <ele>166.0</ele>
      </trkpt>
      <trkpt lat="38.858254" lon="-9.402985">
        <time>1970-01-01T00:00:00+00:00</time>
        <ele>164.0</ele>
      </trkpt>
      <trkpt lat="38.858519" lon="-9.402937">
        <time>1970-01-01T00:00:00+00:00</time>
        <ele>164.0</ele>
      </trkpt>
      <trkpt lat="38.859736" lon="-9.403167">
        <time>1970-01-01T00:00:00+00:00</time>
        <ele>163.0</ele>
      </trkpt>
      <trkpt lat="38.86044" lon="-9.403218">
        <time>1970-01-01T00:00:00+00:00</time>
        <ele>159.0</ele>
      </trkpt>
      <trkpt lat="38.862274" lon="-9.403921">
        <time>1970-01-01T00:00:00+00:00</time>
        <ele>151.0</ele>
      </trkpt>
      <trkpt lat="38.861883" lon="-9.40452">
        <time>1970-01-01T00:00:00+00:00</time>
        <ele>150.0</ele>
      </trkpt>
    </trkseg>
  </trk>
</gpx>
